Location: Pabrico
(37.5827°N, 122.0063°W)
Time: 23:58:04
(UTC+00:00)

IRS-1D - Pass Details

Date: 13 April 2024
Orbit: 739 x 813 km, 98.8° (Epoch: 21 May)

Event Time Altitude Azimuth Distance (km) Brightness Sun altitude
Rises 12:29:27 0° 3° (N) 3,228 7.1 -13.2°
Reaches altitude 10° 12:31:53 10° 355° (N) 2,310 6.2 -12.8°
Maximum altitude 12:36:29 35° 290° (WNW) 1,228 4.2 -11.9°
Enters shadow 12:40:36 13° 229° (SW) 2,147 5.2 -11.2°
